| time (UTC) | temp F | wind direction | speed MPH | gust MPH | rain 1hr in | rain 24hr in | rain mn in | humidity % | barometer mb |
| 20260502195407 | 47 | 14 | 3.0 | 9.0 | 0.00 | 0.00 | 0.00 | 53 | 1012.9 |
| 20260502194908 | 47 | 350 | 5.0 | 9.0 | 0.00 | 0.00 | 0.00 | 50 | 1013.0 |
| 20260502194637 | 47 | 51 | 5.0 | 11.0 | 0.00 | 0.00 | 0.00 | 48 | 1013.1 |
| 20260502193909 | 48 | 358 | 5.0 | 11.0 | 0.00 | 0.00 | 0.00 | 48 | 1013.1 |
| 20260502193406 | 47 | 341 | 5.0 | 11.0 | 0.00 | 0.00 | 0.00 | 49 | 1013.1 |
| 20260502192905 | 47 | 317 | 5.0 | 13.0 | 0.00 | 0.00 | 0.00 | 50 | 1013.2 |
| 20260502192405 | 47 | 333 | 5.0 | 13.0 | 0.00 | 0.00 | 0.00 | 50 | 1013.3 |
| 20260502191905 | 47 | 357 | 6.0 | 12.0 | 0.00 | 0.00 | 0.00 | 51 | 1013.2 |
| 20260502191636 | 47 | 5 | 4.0 | 12.0 | 0.00 | 0.00 | 0.00 | 52 | 1013.3 |
| 20260502190905 | 47 | 327 | 6.0 | 10.0 | 0.00 | 0.00 | 0.00 | 54 | 1013.3 |
| 20260502190403 | 46 | 327 | 6.0 | 10.0 | 0.00 | 0.00 | 0.00 | 54 | 1013.3 |
| 20260502185903 | 46 | 5 | 6.0 | 10.0 | 0.00 | 0.00 | 0.00 | 52 | 1013.4 |
| 20260502185404 | 46 | 5 | 4.0 | 11.0 | 0.00 | 0.00 | 0.00 | 55 | 1013.4 |
| 20260502184923 | 45 | 85 | 4.0 | 11.0 | 0.00 | 0.00 | 0.00 | 53 | 1013.4 |
| 20260502184406 | 46 | 28 | 3.0 | 10.0 | 0.00 | 0.00 | 0.00 | 55 | 1013.5 |
| 20260502183905 | 45 | 4 | 6.0 | 12.0 | 0.00 | 0.00 | 0.00 | 52 | 1013.5 |
| 20260502183404 | 46 | 61 | 4.0 | 12.0 | 0.00 | 0.00 | 0.00 | 51 | 1013.6 |
| 20260502182904 | 46 | 340 | 5.0 | 12.0 | 0.00 | 0.00 | 0.00 | 51 | 1013.6 |
| 20260502182642 | 46 | 18 | 4.0 | 12.0 | 0.00 | 0.00 | 0.00 | 54 | 1013.5 |
| 20260502181906 | 45 | 344 | 4.0 | 12.0 | 0.00 | 0.00 | 0.00 | 54 | 1013.6 |
| 20260502181403 | 46 | 358 | 5.0 | 11.0 | 0.00 | 0.00 | 0.00 | 54 | 1013.7 |
| 20260502180904 | 46 | 24 | 4.0 | 9.0 | 0.00 | 0.00 | 0.00 | 59 | 1013.7 |
| 20260502180404 | 45 | 40 | 1.0 | 7.0 | 0.00 | 0.00 | 0.00 | 62 | 1013.6 |
| 20260502163849 | 44 | 25 | 2.0 | 9.0 | 0.00 | 0.00 | 0.00 | 74 | 1014.3 |
| 20260502163349 | 44 | 341 | 2.0 | 7.0 | 0.00 | 0.00 | 0.00 | 76 | 1014.3 |
| 20260502162848 | 44 | 5 | 2.0 | 7.0 | 0.00 | 0.00 | 0.00 | 75 | 1014.3 |
| 20260502162414 | 43 | 24 | 4.0 | 9.0 | 0.00 | 0.00 | 0.00 | 74 | 1014.4 |
| 20260502161846 | 43 | 323 | 4.0 | 9.0 | 0.00 | 0.00 | 0.00 | 75 | 1014.4 |
| 20260502161346 | 44 | 305 | 3.0 | 9.0 | 0.00 | 0.00 | 0.00 | 75 | 1014.4 |
| 20260502160847 | 43 | 333 | 4.0 | 9.0 | 0.00 | 0.00 | 0.00 | 75 | 1014.4 |
| 20260502160615 | 42 | 17 | 3.0 | 11.0 | 0.00 | 0.00 | 0.00 | 77 | 1014.4 |
| 20260502152333 | 41 | 353 | 4.0 | 9.0 | 0.00 | 0.00 | 0.00 | 77 | 1014.5 |
| 20260502151833 | 42 | 7 | 4.0 | 9.0 | 0.00 | 0.00 | 0.00 | 78 | 1014.6 |
| 20260502151333 | 41 | 38 | 3.0 | 9.0 | 0.00 | 0.00 | 0.00 | 79 | 1014.5 |
| 20260502150834 | 41 | 336 | 3.0 | 10.0 | 0.00 | 0.00 | 0.00 | 80 | 1014.5 |
| 20260502150334 | 41 | 11 | 6.0 | 10.0 | 0.00 | 0.00 | 0.00 | 78 | 1014.6 |
| 20260502130327 | 39 | 283 | 5.0 | 11.0 | 0.00 | 0.00 | 0.00 | 74 | 1015.4 |
| 20260502123326 | 38 | 331 | 3.0 | 12.0 | 0.00 | 0.00 | 0.00 | 75 | 1015.5 |
| 20260502122551 | 37 | 329 | 3.0 | 10.0 | 0.00 | 0.00 | 0.00 | 76 | 1015.4 |
| 20260502121824 | 37 | 305 | 4.0 | 11.0 | 0.00 | 0.00 | 0.00 | 77 | 1015.5 |
| 20260502121325 | 37 | 281 | 4.0 | 11.0 | 0.00 | 0.00 | 0.00 | 77 | 1015.4 |
| 20260502120825 | 37 | 313 | 3.0 | 11.0 | 0.00 | 0.00 | 0.00 | 77 | 1015.4 |
| 20260502120326 | 36 | 334 | 4.0 | 12.0 | 0.00 | 0.00 | 0.00 | 77 | 1015.4 |
| 20260502115825 | 36 | 305 | 5.0 | 12.0 | 0.00 | 0.00 | 0.00 | 79 | 1015.4 |
| 20260502115324 | 35 | 282 | 4.0 | 9.0 | 0.00 | 0.00 | 0.00 | 79 | 1015.4 |
| 20260502115054 | 35 | 283 | 4.0 | 9.0 | 0.00 | 0.00 | 0.00 | 80 | 1015.3 |
| 20260502114547 | 35 | 279 | 4.0 | 9.0 | 0.00 | 0.00 | 0.00 | 80 | 1015.4 |
| 20260502113823 | 34 | 295 | 4.0 | 9.0 | 0.00 | 0.00 | 0.00 | 81 | 1015.4 |
| 20260502113323 | 34 | 288 | 4.0 | 9.0 | 0.00 | 0.00 | 0.00 | 82 | 1015.3 |
| 20260502112823 | 33 | 331 | 3.0 | 9.0 | 0.00 | 0.00 | 0.00 | 82 | 1015.2 |
| 20260502112323 | 33 | 319 | 3.0 | 9.0 | 0.00 | 0.00 | 0.00 | 83 | 1015.2 |
| 20260502111822 | 32 | 309 | 4.0 | 9.0 | 0.00 | 0.00 | 0.00 | 83 | 1015.1 |
| 20260502111547 | 32 | 288 | 5.0 | 7.0 | 0.00 | 0.00 | 0.00 | 83 | 1015.1 |
| 20260502110822 | 32 | 290 | 4.0 | 7.0 | 0.00 | 0.00 | 0.00 | 83 | 1015.1 |
| 20260502110321 | 32 | 300 | 4.0 | 7.0 | 0.00 | 0.00 | 0.00 | 83 | 1015.1 |
| 20260502105823 | 32 | 264 | 4.0 | 7.0 | 0.00 | 0.00 | 0.00 | 83 | 1015.2 |
| 20260502105322 | 32 | 298 | 4.0 | 7.0 | 0.00 | 0.00 | 0.00 | 83 | 1015.1 |
| 20260502104822 | 32 | 279 | 4.0 | 9.0 | 0.00 | 0.00 | 0.00 | 83 | 1015.1 |
| 20260502104546 | 32 | 261 | 5.0 | 9.0 | 0.00 | 0.00 | 0.00 | 82 | 1015.1 |
| 20260502103822 | 32 | 272 | 3.0 | 11.0 | 0.00 | 0.00 | 0.00 | 82 | 1015.1 |
| 20260502103321 | 32 | 283 | 4.0 | 11.0 | 0.00 | 0.00 | 0.00 | 83 | 1015.1 |
| 20260502102821 | 32 | 282 | 4.0 | 11.0 | 0.00 | 0.00 | 0.00 | 83 | 1015.1 |
| 20260502101824 | 32 | 269 | 5.0 | 9.0 | 0.00 | 0.00 | 0.00 | 83 | 1015.1 |
| 20260502101323 | 32 | 264 | 4.0 | 9.0 | 0.00 | 0.00 | 0.00 | 83 | 1015.2 |
| 20260502100823 | 32 | 281 | 4.0 | 9.0 | 0.00 | 0.00 | 0.00 | 83 | 1015.1 |
| 20260502100321 | 32 | 265 | 4.0 | 9.0 | 0.00 | 0.00 | 0.00 | 83 | 1015.2 |
| 20260502091313 | 32 | 290 | 4.0 | 6.0 | 0.00 | 0.01 | 0.00 | 83 | 1014.8 |
| 20260502090812 | 32 | 265 | 3.0 | 7.0 | 0.00 | 0.01 | 0.00 | 83 | 1014.9 |
| 20260502090312 | 32 | 269 | 4.0 | 7.0 | 0.00 | 0.01 | 0.00 | 83 | 1014.8 |
| 20260502071250 | 33 | 275 | 2.0 | 4.0 | 0.00 | 0.01 | 0.00 | 80 | 1014.8 |
| 20260502070745 | 33 | 276 | 2.0 | 6.0 | 0.00 | 0.01 | 0.00 | 80 | 1014.8 |
| 20260502070249 | 34 | 274 | 3.0 | 6.0 | 0.00 | 0.01 | 0.00 | 79 | 1014.8 |
| 20260502065733 | 34 | 264 | 4.0 | 6.0 | 0.00 | 0.01 | 0.00 | 79 | 1014.8 |
| 20260502065233 | 34 | 290 | 3.0 | 6.0 | 0.00 | 0.01 | 0.00 | 79 | 1014.8 |
| 20260502064733 | 34 | 268 | 3.0 | 5.0 | 0.00 | 0.01 | 0.00 | 78 | 1014.9 |
| 20260502064233 | 35 | 281 | 3.0 | 5.0 | 0.00 | 0.01 | 0.00 | 78 | 1014.9 |
| 20260502063732 | 35 | 279 | 2.0 | 5.0 | 0.00 | 0.01 | 0.00 | 78 | 1014.9 |
| 20260502063232 | 35 | 307 | 2.0 | 4.0 | 0.00 | 0.01 | 0.00 | 77 | 1015.1 |
| 20260502063006 | 35 | 305 | 2.0 | 5.0 | 0.00 | 0.01 | 0.00 | 78 | 1015.1 |
| 20260502062235 | 35 | 293 | 2.0 | 6.0 | 0.00 | 0.01 | 0.00 | 77 | 1015.1 |
| 20260502061731 | 35 | 323 | 2.0 | 6.0 | 0.00 | 0.01 | 0.00 | 77 | 1015.2 |
| 20260502061232 | 35 | 292 | 3.0 | 7.0 | 0.00 | 0.01 | 0.00 | 77 | 1014.9 |
| 20260502060729 | 35 | 282 | 3.0 | 7.0 | 0.00 | 0.01 | 0.00 | 76 | 1015.1 |
| 20260502060234 | 36 | 307 | 3.0 | 10.0 | 0.00 | 0.01 | 0.00 | 75 | 1015.1 |
| 20260502055544 | 36 | 298 | 4.0 | 10.0 | 0.00 | 0.01 | 0.00 | 75 | 1014.9 |
| 20260502055043 | 36 | 295 | 5.0 | 9.0 | 0.00 | 0.01 | 0.00 | 76 | 1014.9 |
| 20260502054541 | 36 | 278 | 5.0 | 9.0 | 0.00 | 0.01 | 0.00 | 76 | 1014.9 |
| 20260502054042 | 36 | 337 | 4.0 | 10.0 | 0.00 | 0.01 | 0.00 | 76 | 1014.9 |
| 20260502053542 | 36 | 323 | 6.0 | 11.0 | 0.00 | 0.01 | 0.00 | 76 | 1015.1 |
| 20260502053046 | 36 | 357 | 4.0 | 11.0 | 0.00 | 0.01 | 0.00 | 76 | 1014.9 |
| 20260502052538 | 36 | 347 | 3.0 | 11.0 | 0.00 | 0.01 | 0.00 | 76 | 1015.1 |
| 20260502052039 | 36 | 320 | 4.0 | 11.0 | 0.00 | 0.01 | 0.00 | 76 | 1014.9 |
| 20260502051533 | 36 | 300 | 4.0 | 9.0 | 0.00 | 0.01 | 0.00 | 76 | 1015.1 |
| 20260502051033 | 37 | 345 | 3.0 | 9.0 | 0.00 | 0.01 | 0.00 | 76 | 1015.1 |
| 20260502050759 | 37 | 303 | 4.0 | 9.0 | 0.00 | 0.01 | 0.00 | 76 | 1015.1 |
| 20260502050252 | 37 | 348 | 6.0 | 11.0 | 0.00 | 0.01 | 0.00 | 76 | 1014.9 |
| 20260502045528 | 37 | 24 | 3.0 | 11.0 | 0.00 | 0.01 | 0.00 | 76 | 1014.9 |
| 20260502045025 | 37 | 2 | 5.0 | 10.0 | 0.00 | 0.01 | 0.00 | 77 | 1014.9 |
| 20260502044521 | 37 | 333 | 4.0 | 10.0 | 0.00 | 0.01 | 0.00 | 76 | 1015.1 |
| 20260502044020 | 37 | 313 | 6.0 | 14.0 | 0.00 | 0.01 | 0.00 | 76 | 1014.9 |
| 20260502043519 | 37 | 306 | 5.0 | 14.0 | 0.00 | 0.01 | 0.00 | 76 | 1014.9 |
| 20260502043023 | 37 | 330 | 4.0 | 11.0 | 0.00 | 0.01 | 0.00 | 76 | 1014.9 |
| 20260502042513 | 37 | 319 | 4.0 | 10.0 | 0.00 | 0.01 | 0.00 | 76 | 1014.9 |
| 20260502042247 | 37 | 338 | 5.0 | 11.0 | 0.00 | 0.01 | 0.00 | 75 | 1015.1 |
| 20260502041743 | 37 | 319 | 5.0 | 11.0 | 0.00 | 0.01 | 0.00 | 75 | 1014.9 |
| 20260502041239 | 37 | 37 | 4.0 | 9.0 | 0.00 | 0.01 | 0.00 | 75 | 1015.1 |
| 20260502040513 | 37 | 312 | 4.0 | 10.0 | 0.00 | 0.01 | 0.00 | 75 | 1015.1 |
| 20260502040240 | 37 | 0 | 4.0 | 10.0 | 0.00 | 0.01 | 0.00 | 76 | 1015.1 |
| 20260502035511 | 37 | 330 | 3.0 | 10.0 | 0.00 | 0.01 | 0.01 | 76 | 1015.1 |
| 20260502035011 | 37 | 338 | 4.0 | 10.0 | 0.00 | 0.01 | 0.01 | 76 | 1015.1 |
| 20260502034514 | 37 | 348 | 3.0 | 9.0 | 0.00 | 0.01 | 0.01 | 76 | 1015.1 |
| 20260502034011 | 37 | 5 | 5.0 | 9.0 | 0.00 | 0.01 | 0.01 | 76 | 1015.1 |
| 20260502033511 | 37 | 330 | 4.0 | 7.0 | 0.00 | 0.01 | 0.01 | 76 | 1015.1 |
| 20260502033233 | 37 | 296 | 3.0 | 9.0 | 0.00 | 0.01 | 0.01 | 76 | 1015.1 |
| 20260502032509 | 37 | 336 | 5.0 | 9.0 | 0.00 | 0.01 | 0.01 | 77 | 1015.1 |
| 20260502032009 | 37 | 341 | 4.0 | 9.0 | 0.00 | 0.01 | 0.01 | 78 | 1015.1 |
| 20260502031733 | 37 | 340 | 4.0 | 9.0 | 0.00 | 0.01 | 0.01 | 78 | 1015.2 |
| 20260502031009 | 37 | 358 | 4.0 | 9.0 | 0.00 | 0.01 | 0.01 | 78 | 1015.1 |
| 20260502030743 | 37 | 317 | 3.0 | 6.0 | 0.00 | 0.01 | 0.01 | 78 | 1015.1 |
| 20260502030008 | 37 | 344 | 4.0 | 7.0 | 0.00 | 0.01 | 0.01 | 78 | 1015.1 |
| 20260502025508 | 37 | 322 | 2.0 | 10.0 | 0.00 | 0.01 | 0.01 | 78 | 1015.1 |
| 20260502025240 | 37 | 309 | 5.0 | 10.0 | 0.00 | 0.01 | 0.01 | 77 | 1015.2 |
| 20260502024510 | 37 | 347 | 2.0 | 10.0 | 0.00 | 0.01 | 0.01 | 76 | 1015.2 |
| 20260502024235 | 37 | 24 | 3.0 | 10.0 | 0.00 | 0.01 | 0.01 | 75 | 1015.1 |
| 20260502023507 | 37 | 338 | 4.0 | 10.0 | 0.00 | 0.01 | 0.01 | 75 | 1015.2 |
| 20260502022507 | 37 | 320 | 5.0 | 11.0 | 0.00 | 0.01 | 0.01 | 75 | 1015.2 |
| 20260502022007 | 37 | 303 | 4.0 | 10.0 | 0.00 | 0.01 | 0.01 | 74 | 1015.2 |
| 20260502021507 | 37 | 305 | 5.0 | 11.0 | 0.00 | 0.01 | 0.01 | 75 | 1015.1 |
| 20260502021007 | 37 | 299 | 3.0 | 11.0 | 0.00 | 0.01 | 0.01 | 76 | 1015.1 |
| 20260502020510 | 37 | 2 | 3.0 | 9.0 | 0.00 | 0.01 | 0.01 | 76 | 1015.2 |
| 20260502020008 | 37 | 340 | 3.0 | 9.0 | 0.00 | 0.01 | 0.01 | 77 | 1015.1 |
| 20260502015506 | 37 | 326 | 4.0 | 9.0 | 0.00 | 0.01 | 0.01 | 78 | 1015.1 |
| 20260502015008 | 37 | 341 | 2.0 | 7.0 | 0.00 | 0.01 | 0.01 | 79 | 1014.9 |
| 20260502014506 | 37 | 8 | 4.0 | 7.0 | 0.00 | 0.01 | 0.01 | 80 | 1014.9 |
| 20260502014010 | 37 | 338 | 3.0 | 6.0 | 0.00 | 0.01 | 0.01 | 80 | 1015.1 |
| 20260502013507 | 37 | 334 | 3.0 | 6.0 | 0.00 | 0.01 | 0.01 | 79 | 1015.1 |
| 20260502013008 | 37 | 344 | 3.0 | 6.0 | 0.00 | 0.01 | 0.01 | 79 | 1014.9 |
| 20260502012505 | 37 | 340 | 4.0 | 6.0 | 0.00 | 0.01 | 0.01 | 79 | 1014.9 |
| 20260502012010 | 37 | 310 | 3.0 | 5.0 | 0.00 | 0.01 | 0.01 | 78 | 1014.8 |
| 20260502011509 | 37 | 341 | 2.0 | 5.0 | 0.00 | 0.01 | 0.01 | 77 | 1014.7 |
| 20260502011007 | 37 | 324 | 2.0 | 4.0 | 0.00 | 0.01 | 0.01 | 76 | 1014.8 |
| 20260502010506 | 38 | 290 | 2.0 | 6.0 | 0.00 | 0.01 | 0.01 | 75 | 1014.8 |
| 20260502010006 | 38 | 331 | 3.0 | 6.0 | 0.00 | 0.01 | 0.01 | 74 | 1014.7 |
| 20260502005507 | 38 | 344 | 3.0 | 10.0 | 0.00 | 0.01 | 0.01 | 74 | 1014.7 |
| 20260502004504 | 38 | 341 | 3.0 | 10.0 | 0.00 | 0.01 | 0.01 | 73 | 1014.5 |
| 20260502004006 | 38 | 358 | 4.0 | 9.0 | 0.00 | 0.01 | 0.01 | 72 | 1014.5 |
| 20260502003505 | 38 | 338 | 4.0 | 9.0 | 0.00 | 0.01 | 0.01 | 71 | 1014.5 |
| 20260502003239 | 39 | 295 | 4.0 | 9.0 | 0.00 | 0.01 | 0.01 | 70 | 1014.5 |
| 20260502002506 | 39 | 348 | 3.0 | 9.0 | 0.00 | 0.01 | 0.01 | 70 | 1014.5 |
| 20260502002004 | 39 | 350 | 3.0 | 7.0 | 0.00 | 0.01 | 0.01 | 69 | 1014.4 |
| 20260502001504 | 39 | 329 | 4.0 | 7.0 | 0.00 | 0.01 | 0.01 | 69 | 1014.4 |
| 20260502001005 | 39 | 341 | 3.0 | 10.0 | 0.00 | 0.01 | 0.01 | 68 | 1014.3 |
| 20260502000503 | 39 | 345 | 4.0 | 10.0 | 0.00 | 0.01 | 0.01 | 69 | 1014.3 |
| 20260502000005 | 39 | 338 | 5.0 | 10.0 | 0.00 | 0.01 | 0.01 | 70 | 1014.3 |
| 20260501235503 | 39 | 21 | 4.0 | 7.0 | 0.00 | 0.01 | 0.01 | 72 | 1014.3 |
| 20260501235004 | 39 | 348 | 2.0 | 7.0 | 0.00 | 0.01 | 0.01 | 72 | 1014.2 |
| 20260501234503 | 39 | 358 | 2.0 | 7.0 | 0.00 | 0.01 | 0.01 | 69 | 1014.1 |
| 20260501234235 | 39 | 21 | 1.0 | 5.0 | 0.00 | 0.01 | 0.01 | 68 | 1014.1 |
| 20260501233501 | 39 | 8 | 2.0 | 5.0 | 0.00 | 0.01 | 0.01 | 69 | 1014.1 |
| 20260501233003 | 39 | 353 | 3.0 | 5.0 | 0.00 | 0.01 | 0.01 | 70 | 1014.1 |
| 20260501232502 | 39 | 316 | 2.0 | 5.0 | 0.00 | 0.01 | 0.01 | 70 | 1014.0 |
| 20260501232003 | 39 | 330 | 2.0 | 5.0 | 0.00 | 0.01 | 0.01 | 70 | 1014.1 |
| 20260501231502 | 39 | 24 | 2.0 | 6.0 | 0.00 | 0.01 | 0.01 | 68 | 1014.1 |
| 20260501231003 | 39 | 358 | 2.0 | 6.0 | 0.00 | 0.01 | 0.01 | 67 | 1014.1 |
| 20260501230501 | 39 | 348 | 2.0 | 5.0 | 0.00 | 0.01 | 0.01 | 67 | 1014.1 |
| 20260501230001 | 39 | 11 | 3.0 | 6.0 | 0.00 | 0.01 | 0.01 | 67 | 1014.0 |
| 20260501224958 | 40 | 320 | 3.0 | 7.0 | 0.00 | 0.01 | 0.01 | 65 | 1014.0 |
| 20260501224501 | 40 | 7 | 2.0 | 6.0 | 0.00 | 0.01 | 0.01 | 65 | 1014.0 |
| 20260501223958 | 40 | 1 | 1.0 | 6.0 | 0.00 | 0.01 | 0.01 | 65 | 1014.0 |
| 20260501223456 | 40 | 316 | 2.0 | 6.0 | 0.00 | 0.01 | 0.01 | 64 | 1014.0 |
| 20260501222953 | 40 | 313 | 1.0 | 5.0 | 0.00 | 0.01 | 0.01 | 64 | 1013.9 |
| 20260501222451 | 40 | 7 | 2.0 | 7.0 | 0.00 | 0.01 | 0.01 | 63 | 1013.8 |
| 20260501221951 | 40 | 355 | 3.0 | 7.0 | 0.00 | 0.01 | 0.01 | 64 | 1013.9 |
| 20260501220948 | 40 | 21 | 2.0 | 6.0 | 0.00 | 0.01 | 0.01 | 64 | 1013.8 |
| 20260501220449 | 40 | 353 | 3.0 | 6.0 | 0.00 | 0.01 | 0.01 | 64 | 1013.8 |
| 20260501215948 | 40 | 341 | 2.0 | 7.0 | 0.00 | 0.01 | 0.01 | 64 | 1013.8 |
| 20260501215446 | 40 | 305 | 4.0 | 7.0 | 0.00 | 0.01 | 0.01 | 64 | 1013.8 |
| 20260501214946 | 40 | 295 | 2.0 | 7.0 | 0.00 | 0.01 | 0.01 | 66 | 1013.8 |
| 20260501214446 | 40 | 314 | 1.0 | 7.0 | 0.00 | 0.01 | 0.01 | 68 | 1013.7 |
| 20260501213944 | 40 | 336 | 3.0 | 7.0 | 0.00 | 0.01 | 0.01 | 69 | 1013.7 |
| 20260501213448 | 40 | 350 | 4.0 | 7.0 | 0.00 | 0.01 | 0.01 | 70 | 1013.7 |
| 20260501212943 | 40 | 331 | 2.0 | 7.0 | 0.00 | 0.01 | 0.01 | 71 | 1013.7 |
| 20260501212447 | 40 | 320 | 4.0 | 7.0 | 0.00 | 0.01 | 0.01 | 71 | 1013.6 |
| 20260501212018 | 40 | 327 | 4.0 | 7.0 | 0.00 | 0.01 | 0.01 | 71 | 1013.6 |
| 20260501211552 | 40 | 322 | 4.0 | 7.0 | 0.00 | 0.02 | 0.01 | 71 | 1013.6 |
| 20260501210935 | 40 | 333 | 4.0 | 7.0 | 0.00 | 0.02 | 0.01 | 71 | 1013.6 |
| 20260501210436 | 40 | 355 | 3.0 | 7.0 | 0.00 | 0.02 | 0.01 | 73 | 1013.6 |
| 20260501205935 | 40 | 327 | 3.0 | 9.0 | 0.00 | 0.02 | 0.01 | 72 | 1013.6 |
| 20260501205434 | 40 | 8 | 4.0 | 9.0 | 0.00 | 0.02 | 0.01 | 73 | 1013.5 |
| 20260501204934 | 40 | 4 | 3.0 | 10.0 | 0.00 | 0.02 | 0.01 | 72 | 1013.5 |
| 20260501203939 | 41 | 9 | 4.0 | 10.0 | 0.00 | 0.03 | 0.01 | 69 | 1013.4 |
| 20260501203433 | 41 | 32 | 2.0 | 13.0 | 0.00 | 0.03 | 0.01 | 69 | 1013.4 |
| 20260501202932 | 41 | 9 | 5.0 | 14.0 | 0.00 | 0.03 | 0.01 | 68 | 1013.4 |
| 20260501202432 | 41 | 0 | 7.0 | 14.0 | 0.00 | 0.03 | 0.01 | 66 | 1013.5 |
| 20260501201933 | 41 | 14 | 6.0 | 11.0 | 0.00 | 0.03 | 0.01 | 64 | 1013.3 |
| 20260501201701 | 42 | 350 | 3.0 | 16.0 | 0.00 | 0.03 | 0.01 | 61 | 1013.3 |
| 20260501201026 | 42 | 330 | 7.0 | 15.0 | 0.00 | 0.03 | 0.01 | 55 | 1013.2 |
| 20260501200947 | 42 | 314 | 8.0 | 16.0 | 0.00 | 0.03 | 0.01 | 57 | 1013.3 |
| 20260501200611 | 42 | 322 | 8.0 | 15.0 | 0.00 | 0.03 | 0.01 | 57 | 1013.3 |